Miscellaneous Local Product
Issued by NWS North Platte, NE

Home | Current Version | Previous Version | Text Only | Print | Product List | Glossary On
Versions: 1 2 3 4 5 6 7 8 9 10 11 12 13 14 15 16 17 18 19 20 21 22 23 24 25 26 27 28 29 30 31 32 33 34 35 36 37 38 39 40 41 42 43 44 45 46 47 48 49 50
178
AXUS43 KLBF 260510
MISLBF


WESTERN AND NORTH CENTRAL NEBRASKA HOURLY WEATHER ROUNDUP
NATIONAL WEATHER SERVICE NORTH PLATTE NE
1200 AM CDT SUN MAR 26 2017

NOTE: "FAIR" INDICATES FEW OR NO CLOUDS BELOW 12,000 FEET WITH NO
SIGNIFICANT WEATHER AND/OR OBSTRUCTIONS TO VISIBILITY.

NOTE: STATIONS NOT REPORTING VARIABLES SUCH AS SKY/WEATHER OR
PRESSURE ARE PROVIDED BY RAWS AND APRS NETWORKS AND ARE NOT UNDER
NATIONAL WEATHER SERVICE QUALITY CONTROL.

...OBSERVATIONS IN AND NEAR THE EASTERN PANHANDLE OF NEBRASKA...

CITY           SKY/WX    TMP DP  RH WIND       PRES   REMARKS
PINE RIDGE     CLOUDY    54  27  35 SW15G22   29.80S
CHADRON        PTCLDY    54  31  41 SW6       29.79S
ALLIANCE       CLOUDY    44  30  57 SE9       29.82F
SIDNEY         CLOUDY    37  29  72 S6        29.85F WCI  32
CRESCENT LAKE    N/A     46  28  48 SE6         N/A
$$

...OBSERVATIONS IN NORTHERN NEBRASKA AND FAR SOUTHERN SOUTH DAKOTA...

CITY           SKY/WX    TMP DP  RH WIND       PRES   REMARKS
WINNER         CLOUDY    41  38  89 SE17G26   29.90R
VALENTINE      CLOUDY    40  37  89 SE14      29.88S WCI  32
THEDFORD       CLOUDY    39  38  97 SE3       29.89F
AINSWORTH      CLOUDY    39  38  99 SE13      29.90S WCI  31
O`NEILL        FOG       39  39 100 E5        29.93F VSB 3/4
ORD            CLOUDY    39  37  92 E5        29.91F FOG
BROKEN BOW     CLOUDY    41  40  96 SE7       29.90F
VALENTINE NWR    N/A     38  37  97 SE10        N/A  WCI  31
HALSEY           N/A     37  37  99 SE6         N/A  WCI  32
BUTTE            N/A     38  37  97 E7          N/A  WCI  33
CHAMBERS         N/A     38  37  97 CALM        N/A
EWING            N/A     38  38 100 CALM        N/A
$$

...OBSERVATIONS IN SOUTHWEST NEBRASKA AND FAR NORTHEAST COLORADO...

CITY           SKY/WX    TMP DP  RH WIND       PRES   REMARKS
WRAY           FAIR      43  32  65 CALM      29.86F
HOLYOKE        FAIR      41  34  75 SE6       29.85F
IMPERIAL       CLOUDY    42  39  89 SE13      29.86F
OGALLALA       CLOUDY    45  41  88 CALM      29.86F
NORTH PLATTE   CLOUDY    42  40  92 SE7       29.89S
MCCOOK         CLOUDY    41  41 100 E7        29.89F FOG
LEXINGTON      CLOUDY    41  40  94 SE8       29.90F FOG
STAPLETON        N/A     38  36  94 CALM        N/A
GOTHENBURG       N/A     42  38  87 E8          N/A
CALLAWAY         N/A     40  39  95 SE8         N/A  WCI  34
$$

...OBSERVATIONS IN CENTRAL LINCOLN COUNTY AREA...

CITY           SKY/WX    TMP DP  RH WIND       PRES   REMARKS
N.P. AIRPORT   CLOUDY    42  40  92 SE7       29.89S
N.P. DOWNTOWN    N/A     41  39  93 CALM        N/A
N.P. SOUTHEAST   N/A     41  39  92 SE3         N/A
N.P. HILLCREST   N/A     41  40  95 SE7         N/A
$$

...SOME OBSERVATIONS FROM AROUND THE REGION...

CITY           SKY/WX    TMP DP  RH WIND       PRES   REMARKS
DENVER         CLOUDY    47  35  63 S14       29.82S
LIMON          CLOUDY    41  37  86 SE3       29.86S
ASPEN          CLOUDY    36  34  92 S3        29.93F
LARAMIE        CLOUDY    43  24  47 S9        29.86S
CASPER         LGT RAIN  41  40  96 N9        29.89R
CHEYENNE       CLOUDY    46  29  51 S6        29.85S
SCOTTSBLUFF    CLOUDY    49  34  56 E10       29.82S
GRAND ISLAND   FOG       38  38 100 NE5       29.93F VSB 3/4 WCI  34
OMAHA          LGT RAIN  41  37  86 N9        29.92F
SIOUX FALLS    CLOUDY    39  37  92 E8        29.96F WCI  33
PIERRE         CLOUDY    39  34  82 SE14      29.90R WCI  31
RAPID CITY     CLOUDY    51  33  50 N15       29.80S
BISMARCK       CLOUDY    43  34  70 SE5       29.93S
KANSAS CITY    CLOUDY    45  43  93 N8        29.89S
HILL CITY      PTCLDY    36  36 100 E3        29.90F FOG
WICHITA        CLOUDY    44  41  89 NE9       29.90F
DODGE CITY     CLOUDY    40  37  89 SE8       29.89F WCI  34
OKLAHOMA CITY  PTCLDY    49  43  80 E8        29.90F
DALLAS         CLEAR     61  48  62 E6        29.90F
AMARILLO       CLEAR     52  30  43 SE13      29.87F
$$




USA.gov is the U.S. government's official web portal to all federal, state and local government web resources and services.